Regional Weather Roundup
Issued by NWS

Home | Current Version | Previous Version | Graphics & Text | Print | Product List | Glossary On
Versions: 1 2 3 4 5 6 7 8 9 10 11 12 13 14 15 16 17 18 19 20 21 22 23 24 25 26 27 28 29 30 31 32 33 34 35 36 37 38 39 40 41 42 43 44 45 46 47 48 49 50
000
ASUS43 KIND 101659
RWRIN

WEATHER ROUNDUP FOR INDIANA
NATIONAL WEATHER SERVICE INDIANAPOLIS IN
1200 PM EST SAT DEC 10 2016

NOTE: "FAIR" INDICATES FEW OR NO CLOUDS BELOW 12,000 FEET WITH NO
SIGNIFICANT WEATHER AND/OR OBSTRUCTIONS TO VISIBILITY.

* - STATION DOES NOT REPORT WEATHER SUCH AS PRECIPITATION OR FOG.

+ - STATION NOT QUALITY CONTROLLED BY THE NATIONAL WEATHER SERVICE.
    USE DATA WITH CAUTION...ESPECIALLY DEWPOINT AND RELATIVE
    HUMIDITY OBSERVATIONS.

INZ001>003-010>013-019-020-101800-
NORTHWEST INDIANA

CITY           SKY/WX    TMP DP  RH WIND       PRES   REMARKS
GARY /AIRPORT/ PTSUNNY   27  14  59 SW12      30.53F WCI  16
KNOX *+        MOSUNNY   27  -4  26 W7        30.51F WCI  19
LA PORTE +     SUNNY     24  14  66 W10       30.50F WCI  13
MONTICELLO +   PTSUNNY   25  11  54 W8G18     30.52F WCI  17
RENSSELAER +     N/A     27  18  69 W8        30.52F WCI  18

$$

LMZ046-743>745-101800-
SOUTHERN LAKE MICHIGAN

STATION/POSITION TIME  TEMP    WIND        PRES    WAVE
                       AIR SEA DIR/SP/G            HT
                 (UTC) (F)     (DEG/KT/KT) (MB)    (FT)

$$

INZ004-005-014>016-021>024-101800-
NORTH CENTRAL INDIANA

CITY           SKY/WX    TMP DP  RH WIND       PRES   REMARKS
ELKHART        LGT SNOW  23  16  74 W10       30.48F WCI  12
GOSHEN         CLOUDY    25  13  60 SW13      30.48F WCI  14
SOUTH BEND     FLURRIES  21  16  81 SW12      30.49F WCI   9
WARSAW +       CLOUDY    25  14  63 W9        30.50F WCI  15

$$

INZ006>009-017-018-025>027-101800-
NORTHEAST INDIANA

CITY           SKY/WX    TMP DP  RH WIND       PRES   REMARKS
ANGOLA *+      CLOUDY    25  18  74 W10       30.46F WCI  15
FORT WAYNE     FLURRIES  25  16  68 W12       30.51F WCI  14
KENDALLVILLE + PTSUNNY   24  15  69 W14       30.48F WCI  12

$$

INZ028-029-035-036-043>045-051>053-101800-
WEST CENTRAL INDIANA

CITY           SKY/WX    TMP DP  RH WIND       PRES   REMARKS
CRAWFORDSVL +  PTSUNNY   25  16  70 SW5       30.53F WCI  19
GREENCASTLE +  CLOUDY    27  19  74 W3        30.55F
LAFAYETTE      MOSUNNY   24  16  71 W5        30.53F WCI  18
TERRE HAUTE    CLOUDY    26  16  65 W7        30.57F WCI  18

$$

INZ030>032-037>040-046>048-054>057-064-065-101800-
CENTRAL INDIANA

CITY           SKY/WX    TMP DP  RH WIND       PRES   REMARKS
ANDERSON       CLOUDY    25  16  68 SW7       30.54F WCI  17
COLUMBUS       CLOUDY    27  19  74 CALM      30.56F
FRANKFORT +    CLOUDY    28  18  67 W10       30.53F WCI  18
GREENWOOD *+   CLOUDY    26  17  66 NW6       30.55F WCI  20
INDIANAPOLIS   CLOUDY    27  15  61 W10       30.54F WCI  17
-EAGLE CREEK   PTSUNNY   27  15  61 W8        30.54F WCI  19
KOKOMO +       CLOUDY    25  17  72 SW13      30.52F WCI  14
SHELBYVILLE    CLOUDY    27  16  63 W7        30.53F WCI  19
ZIONSVILLE +   CLOUDY    25  16  69 SW9       30.53F WCI  16

$$

INZ033-034-041-042-049-050-058-059-101800-
EAST CENTRAL INDIANA

CITY           SKY/WX    TMP DP  RH WIND       PRES   REMARKS
MUNCIE         CLOUDY    25  17  72 W10       30.53F WCI  15

$$

INZ060-061-067>069-081>083-085>088-101800-
SOUTHWEST INDIANA

CITY           SKY/WX    TMP DP  RH WIND       PRES   REMARKS
EVANSVILLE     CLOUDY    31  15  52 SW5       30.61F WCI  26
HUNTINGBURG *+ CLOUDY    29  18  63 W5        30.60F WCI  24

$$

INZ062-063-066-070>080-084-089>092-101800-
SOUTH CENTRAL AND SOUTHEAST INDIANA

CITY           SKY/WX    TMP DP  RH WIND       PRES   REMARKS
BLOOMINGTON    CLOUDY    26  17  68 W5        30.55F WCI  20
MADISON *+     PTSUNNY   30  18  59 SW3       30.57F
SEYMOUR +      CLOUDY    30  18  59 SW3       30.57F

$$





USA.gov is the U.S. government's official web portal to all federal, state and local government web resources and services.